EN

Hourly Weather Dundee

Today, 24 October, Saturday

Time Temperature Precipitation Wind Pressure Humidity
00:00 +4°C° 0 mm 4 mps 738 mmHg 88%
01:00 +5°C° 0.1 mm 5 mps 737 mmHg 87%
02:00 +5°C° 0.1 mm 5 mps 736 mmHg 86%
03:00 +5°C° 0.1 mm 6 mps 734 mmHg 85%
04:00 +5°C° 0.4 mm 7 mps 733 mmHg 86%
05:00 +6°C° 0.4 mm 8 mps 732 mmHg 87%
06:00 +7°C° 0.4 mm 9 mps 731 mmHg 87%
07:00 +7°C° 1.1 mm 8 mps 731 mmHg 89%
08:00 +7°C° 1.1 mm 8 mps 731 mmHg 90%
09:00 +8°C° 1.1 mm 7 mps 730 mmHg 91%
10:00 +8°C° 0.4 mm 7 mps 730 mmHg 88%
11:00 +8°C° 0.4 mm 7 mps 731 mmHg 84%
12:00 +8°C° 0.4 mm 6 mps 731 mmHg 81%
13:00 +8°C° 0.1 mm 6 mps 730 mmHg 81%
14:00 +8°C° 0.1 mm 6 mps 730 mmHg 81%
15:00 +7°C° 0.1 mm 6 mps 730 mmHg 81%
16:00 +7°C° 0.1 mm 5 mps 730 mmHg 83%
17:00 +6°C° 0.1 mm 5 mps 730 mmHg 84%
18:00 +5°C° 0.1 mm 4 mps 730 mmHg 86%
19:00 +5°C° 0 mm 4 mps 730 mmHg 87%
20:00 +4°C° 0 mm 4 mps 730 mmHg 87%
21:00 +4°C° 0 mm 3 mps 730 mmHg 88%
22:00 +3°C° 0 mm 3 mps 730 mmHg 88%
23:00 +3°C° 0 mm 3 mps 729 mmHg 88%

Tomorrow, 25 October, Sunday

Time Temperature Precipitation Wind Pressure Humidity
00:00 +3°C° 0 mm 3 mps 729 mmHg 88%
01:00 +3°C° 0 mm 3 mps 729 mmHg 88%
02:00 +3°C° 0 mm 4 mps 728 mmHg 89%
03:00 +3°C° 0 mm 4 mps 728 mmHg 89%
04:00 +3°C° 0 mm 4 mps 728 mmHg 88%
05:00 +3°C° 0 mm 4 mps 727 mmHg 87%
06:00 +2°C° 0 mm 5 mps 727 mmHg 86%
07:00 +3°C° 0 mm 5 mps 727 mmHg 86%
08:00 +5°C° 0 mm 5 mps 727 mmHg 85%
09:00 +5°C° 0 mm 5 mps 727 mmHg 85%
10:00 +5°C° 0.1 mm 6 mps 728 mmHg 82%
11:00 +7°C° 0.1 mm 6 mps 728 mmHg 79%
12:00 +8°C° 0.1 mm 7 mps 728 mmHg 76%
13:00 +8°C° 0 mm 7 mps 728 mmHg 76%
14:00 +8°C° 0 mm 6 mps 728 mmHg 76%
15:00 +7°C° 0 mm 6 mps 728 mmHg 77%
16:00 +7°C° 0 mm 6 mps 728 mmHg 79%
17:00 +6°C° 0 mm 5 mps 729 mmHg 82%
18:00 +5°C° 0 mm 5 mps 729 mmHg 85%
19:00 +5°C° 0 mm 5 mps 729 mmHg 85%
20:00 +5°C° 0 mm 5 mps 729 mmHg 86%
21:00 +5°C° 0 mm 4 mps 729 mmHg 86%
22:00 +5°C° 0 mm 4 mps 729 mmHg 87%
23:00 +5°C° 0 mm 4 mps 729 mmHg 87%

Day after tomorrow, 26 October, Monday

Time Temperature Precipitation Wind Pressure Humidity
00:00 +4°C° 0 mm 4 mps 728 mmHg 87%
01:00 +5°C° 0 mm 4 mps 728 mmHg 88%
02:00 +5°C° 0 mm 4 mps 728 mmHg 89%
03:00 +5°C° 0 mm 4 mps 728 mmHg 90%
04:00 +5°C° 0 mm 4 mps 728 mmHg 90%
05:00 +5°C° 0 mm 4 mps 728 mmHg 91%
06:00 +5°C° 0 mm 4 mps 728 mmHg 91%
07:00 +6°C° 0.1 mm 4 mps 728 mmHg 90%
08:00 +6°C° 0.1 mm 4 mps 728 mmHg 89%
09:00 +6°C° 0.1 mm 4 mps 728 mmHg 88%
10:00 +7°C° 0.1 mm 4 mps 728 mmHg 86%
11:00 +8°C° 0.1 mm 4 mps 729 mmHg 84%
12:00 +9°C° 0.1 mm 3 mps 729 mmHg 81%
13:00 +9°C° 0.2 mm 3 mps 729 mmHg 82%
14:00 +9°C° 0.2 mm 2 mps 729 mmHg 82%
15:00 +9°C° 0.2 mm 2 mps 729 mmHg 83%
16:00 +8°C° 0 mm 2 mps 730 mmHg 85%
17:00 +7°C° 0 mm 2 mps 730 mmHg 88%
18:00 +6°C° 0 mm 2 mps 731 mmHg 91%
19:00 +6°C° 0 mm 2 mps 731 mmHg 90%
20:00 +5°C° 0 mm 2 mps 731 mmHg 90%
21:00 +5°C° 0 mm 2 mps 732 mmHg 89%
22:00 +5°C° 0 mm 2 mps 732 mmHg 89%
23:00 +4°C° 0 mm 2 mps 732 mmHg 89%

, 27 October, Tuesday

Time Temperature Precipitation Wind Pressure Humidity
00:00 +4°C° 0 mm 2 mps 732 mmHg 89%
01:00 +4°C° 0 mm 2 mps 732 mmHg 89%
02:00 +5°C° 0 mm 1 mps 732 mmHg 89%
03:00 +5°C° 0 mm 1 mps 732 mmHg 89%
04:00 +4°C° 0 mm 1 mps 733 mmHg 90%
05:00 +4°C° 0 mm 1 mps 733 mmHg 91%
06:00 +4°C° 0 mm 1 mps 733 mmHg 91%
07:00 +5°C° 0 mm 1 mps 732 mmHg 91%
08:00 +5°C° 0 mm 1 mps 732 mmHg 91%
09:00 +6°C° 0 mm 1 mps 732 mmHg 91%
10:00 +7°C° 0 mm 1 mps 732 mmHg 89%
11:00 +7°C° 0 mm 2 mps 731 mmHg 87%
12:00 +8°C° 0 mm 2 mps 731 mmHg 85%
13:00 +8°C° 0.1 mm 3 mps 730 mmHg 85%
14:00 +7°C° 0.1 mm 4 mps 729 mmHg 85%
15:00 +7°C° 0.1 mm 4 mps 728 mmHg 85%
16:00 +7°C° 1.7 mm 5 mps 728 mmHg 89%
17:00 +7°C° 1.7 mm 5 mps 727 mmHg 93%
18:00 +7°C° 1.7 mm 5 mps 726 mmHg 96%
19:00 +5°C° 1 mm 6 mps 726 mmHg 94%
20:00 +5°C° 1 mm 7 mps 726 mmHg 91%
21:00 +5°C° 1 mm 8 mps 726 mmHg 88%
22:00 +4°C° 0.1 mm 7 mps 726 mmHg 88%
23:00 +4°C° 0.1 mm 6 mps 726 mmHg 88%

27 October, Tuesday

Time Temperature Precipitation Wind Pressure Humidity
00:00 +4°C° 0 mm 2 mps 732 mmHg 89%
01:00 +4°C° 0 mm 2 mps 732 mmHg 89%
02:00 +5°C° 0 mm 1 mps 732 mmHg 89%
03:00 +5°C° 0 mm 1 mps 732 mmHg 89%
04:00 +4°C° 0 mm 1 mps 733 mmHg 90%
05:00 +4°C° 0 mm 1 mps 733 mmHg 91%
06:00 +4°C° 0 mm 1 mps 733 mmHg 91%
07:00 +5°C° 0 mm 1 mps 732 mmHg 91%
08:00 +5°C° 0 mm 1 mps 732 mmHg 91%
09:00 +6°C° 0 mm 1 mps 732 mmHg 91%
10:00 +7°C° 0 mm 1 mps 732 mmHg 89%
11:00 +7°C° 0 mm 2 mps 731 mmHg 87%
12:00 +8°C° 0 mm 2 mps 731 mmHg 85%
13:00 +8°C° 0.1 mm 3 mps 730 mmHg 85%
14:00 +7°C° 0.1 mm 4 mps 729 mmHg 85%
15:00 +7°C° 0.1 mm 4 mps 728 mmHg 85%
16:00 +7°C° 1.7 mm 5 mps 728 mmHg 89%
17:00 +7°C° 1.7 mm 5 mps 727 mmHg 93%
18:00 +7°C° 1.7 mm 5 mps 726 mmHg 96%
19:00 +5°C° 1 mm 6 mps 726 mmHg 94%
20:00 +5°C° 1 mm 7 mps 726 mmHg 91%
21:00 +5°C° 1 mm 8 mps 726 mmHg 88%
22:00 +4°C° 0.1 mm 7 mps 726 mmHg 88%
23:00 +4°C° 0.1 mm 6 mps 726 mmHg 88%

28 October, Wednesday

Time Temperature Precipitation Wind Pressure Humidity
00:00 +3°C° 0.1 mm 5 mps 726 mmHg 88%
01:00 +3°C° 0 mm 5 mps 726 mmHg 89%
02:00 +3°C° 0 mm 4 mps 726 mmHg 90%
03:00 +3°C° 0 mm 4 mps 725 mmHg 90%
04:00 +3°C° 0.2 mm 4 mps 725 mmHg 91%
05:00 +4°C° 0.2 mm 4 mps 725 mmHg 91%
06:00 +5°C° 0.2 mm 3 mps 724 mmHg 91%
07:00 +5°C° 0.1 mm 4 mps 724 mmHg 90%
08:00 +6°C° 0.1 mm 5 mps 724 mmHg 89%
09:00 +7°C° 0.1 mm 5 mps 724 mmHg 88%
10:00 +7°C° 0.2 mm 6 mps 724 mmHg 86%
11:00 +8°C° 0.2 mm 6 mps 723 mmHg 83%
12:00 +9°C° 0.2 mm 6 mps 723 mmHg 81%
13:00 +8°C° 0.3 mm 7 mps 722 mmHg 82%
14:00 +8°C° 0.3 mm 7 mps 722 mmHg 84%
15:00 +8°C° 0.3 mm 7 mps 721 mmHg 86%
16:00 +8°C° 0.2 mm 7 mps 720 mmHg 86%
17:00 +8°C° 0.2 mm 7 mps 720 mmHg 87%
18:00 +8°C° 0.2 mm 7 mps 719 mmHg 87%
19:00 +8°C° 0.2 mm 6 mps 719 mmHg 89%
20:00 +7°C° 0.2 mm 5 mps 720 mmHg 91%
21:00 +7°C° 0.2 mm 5 mps 720 mmHg 93%
22:00 +7°C° 0.2 mm 5 mps 721 mmHg 92%
23:00 +7°C° 0.2 mm 5 mps 722 mmHg 92%

29 October, Thursday

Time Temperature Precipitation Wind Pressure Humidity
00:00 +7°C° 0.2 mm 6 mps 723 mmHg 91%
01:00 +7°C° 0.1 mm 6 mps 724 mmHg 90%
02:00 +5°C° 0.1 mm 6 mps 725 mmHg 89%
03:00 +5°C° 0.1 mm 6 mps 726 mmHg 87%
04:00 +4°C° 0 mm 6 mps 727 mmHg 89%
05:00 +5°C° 0 mm 5 mps 728 mmHg 90%
06:00 +5°C° 0 mm 5 mps 729 mmHg 92%
07:00 +5°C° 0 mm 5 mps 729 mmHg 91%
08:00 +6°C° 0 mm 5 mps 729 mmHg 91%
09:00 +6°C° 0 mm 5 mps 729 mmHg 90%
10:00 +6°C° 1.3 mm 4 mps 729 mmHg 91%
11:00 +7°C° 1.3 mm 3 mps 729 mmHg 93%
12:00 +7°C° 1.3 mm 2 mps 728 mmHg 94%
13:00 +7°C° 0.4 mm 3 mps 728 mmHg 93%
14:00 +8°C° 0.4 mm 3 mps 728 mmHg 92%
15:00 +7°C° 0.4 mm 4 mps 728 mmHg 90%
16:00 +7°C° 0 mm 5 mps 728 mmHg 89%
17:00 +7°C° 0 mm 5 mps 728 mmHg 89%
18:00 +7°C° 0 mm 6 mps 729 mmHg 88%
19:00 +6°C° 0 mm 7 mps 729 mmHg 87%
20:00 +6°C° 0 mm 7 mps 729 mmHg 87%
21:00 +6°C° 0 mm 8 mps 729 mmHg 86%
22:00 +6°C° 0 mm 8 mps 730 mmHg 86%
23:00 +5°C° 0 mm 7 mps 731 mmHg 86%
Show more